Location: Anmer
(52.8333°N, 0.5833°E)
Time: 11:28:48
(UTC+00:00)

Spot 4 - Pass Details

Date: 15 May 2026
Orbit: 698 x 714 km, 98.2° (Epoch: 6 June)

Event Time Altitude Azimuth Distance (km) Brightness Sun altitude
Exits shadow 23:36:11 31° 202° (SSW) 1,224 4.6 -18.0°
Maximum altitude 23:38:08 51° 260° (W) 895 4.3 -18.0°
Drops below altitude 10° 23:42:50 10° 337° (NNW) 2,196 7.4 -18.1°
Sets 23:45:11 0° 342° (NNW) 3,122 8.6 -18.1°
